Weather observations for the past three days for
Angoon
Metric (Imperial)
Date Time (akdt) Wind (kph) Vis. (km) Weather Sky Cond. Temperature (ºC) Relative Humidity Wind Chill (°C) Heat Index (°C) Pressure Precipitation (cm)
Air Dwpt 6 hour altimeter (cm) sea level (mb) 1 hr 3 hr 6 hr
Max. Min.
21 08:56 Calm 16.09 Overcast OVC110 13.3 11.1 87% 75.92 1010.9
21 07:56 Calm 16.09 Mostly Cloudy BKN110 12.8 10 83% 75.97 1011.6
21 06:56 Calm 16.09 Partly Cloudy SCT110 11.1 10.6 97% 76.02 1012.4
21 05:56 Calm 16.09 A Few Clouds FEW110 11.1 10 93% 76.07 1013.0
21 04:56 Calm 16.09 Mostly Cloudy BKN065 10.6 10 96% 76.1 1013.4
21 03:56 Calm 16.09 Mostly Cloudy BKN050 10.6 10 13.3 10.6 96% 76.15 1014.0
21 02:56 Calm 16.09 Overcast OVC050 11.1 9.4 89% 76.17 1014.4
21 01:56 Calm 16.09 Overcast BKN055 OVC080 11.7 10 89% 76.2 1014.8
21 00:56 Calm 16.09 Overcast SCT075 OVC090 11.7 9.4 86% 76.23 1015.2
20 23:56 Calm 16.09 Overcast OVC060 11.7 10 89% 76.25 1015.4
20 22:56 Calm 16.09 Overcast BKN075 OVC100 12.2 9.4 83% 76.25 1015.6
20 20:56 Vrbl 6 16.09 Overcast OVC085 13.9 8.9 72% 76.28 1015.9
20 19:56 Calm 16.09 Overcast BKN090 OVC110 14.4 8.3 67% 76.3 1016.1
20 18:56 S 9 16.09 Overcast OVC100 14.4 10 75% 76.3 1016.2
20 17:56 Vrbl 9 16.09 Overcast OVC110 15 10 72% 76.3 1016.3
20 16:56 Vrbl 6 16.09 Mostly Cloudy BKN110 17.2 8.9 58% 76.35 1016.8
20 15:56 Vrbl 7 16.09 Fair CLR 15.6 10 15.6 11.7 70% 76.38 1017.3
20 14:56 Vrbl 7 16.09 Fair CLR 15 10 72% 76.4 1017.6
20 13:56 Vrbl 7 16.09 Mostly Cloudy SCT048 BKN060 13.9 10.6 81% 76.43 1017.9
20 12:56 Vrbl 9 16.09 Overcast OVC044 12.8 10 83% 76.45 1018.2
20 11:56 S 11 16.09 Fair CLR 13.3 10 81% 76.48 1018.5
20 10:56 Vrbl 9 16.09 Overcast OVC055 11.7 10 89% 76.5 1018.7
20 09:56 Vrbl 6 16.09 Partly Cloudy SCT010 11.7 10 12.8 10 89% 76.5 1018.8
20 08:56 N 6 16.09 Overcast OVC008 10.6 9.4 92% 76.53 1019.0
20 07:56 Vrbl 6 16.09 Overcast OVC006 10 9.4 96% 76.53 1019.2
20 06:56 Calm 16.09 Overcast OVC006 10 9.4 96% 76.5 1019.0
20 05:56 Calm 16.09 Overcast OVC006 10 9.4 96% 76.5 1018.7
20 04:56 S 6 16.09 Overcast OVC006 10 9.4 96% 76.48 1018.5
20 03:56 Vrbl 6 16.09 Overcast OVC004 10 9.4 11.7 9.4 96% 76.48 1018.4
20 02:56 Calm 16.09 Mostly Cloudy BKN006 10 10 100% 76.48 1018.4
20 01:56 SE 6 16.09 Fair CLR 10.6 9.4 92% 76.48 1018.4
20 00:56 Vrbl 6 16.09 Fair CLR 10.6 10 96% 76.45 1018.0
19 23:56 SE 6 16.09 Fair CLR 11.1 9.4 89% 76.43 1017.9
19 22:56 Vrbl 9 16.09 Fair CLR 11.7 10 89% 76.4 1017.7
19 21:56 Vrbl 7 16.09 Fair CLR 11.7 10 18.3 11.7 89% 76.4 1017.4
19 20:56 Calm 16.09 Fair CLR 12.8 10 83% 76.35 1016.9
19 19:56 Vrbl 6 16.09 Fair CLR 13.3 10 81% 76.33 1016.5
19 18:56 Calm 16.09 Fair CLR 15 10.6 75% 76.33 1016.4
19 17:56 Vrbl 6 16.09 Fair CLR 17.8 10.6 63% 76.33 1016.5
19 16:56 Vrbl 7 16.09 Fair CLR 17.2 9.4 60% 76.35 1016.8
19 15:56 Vrbl 7 16.09 Fair CLR 17.2 10 17.2 11.7 63% 76.35 1017.0
19 14:56 Calm 16.09 Fair CLR 16.1 11.1 72% 76.4 1017.4
19 13:56 Vrbl 9 16.09 Fair CLR 15.6 11.1 75% 76.4 1017.5
19 12:56 Vrbl 6 16.09 Fair CLR 13.9 11.1 83% 76.43 1017.7
19 11:56 Vrbl 6 16.09 A Few Clouds FEW007 12.8 11.1 90% 76.45 1018.1
19 10:56 Vrbl 6 16.09 A Few Clouds FEW008 12.2 10.6 90% 76.45 1018.2
19 09:56 Calm 16.09 Overcast OVC008 12.8 11.1 12.8 10.6 90% 76.45 1018.2
19 08:56 S 6 16.09 Overcast OVC008 12.2 10.6 90% 76.48 1018.5
19 07:56 Vrbl 6 16.09 Overcast OVC010 11.7 10.6 93% 76.48 1018.4
19 05:56 Calm 16.09 Overcast OVC010 10.6 10 96% 76.48 1018.4
19 04:56 Calm 16.09 Overcast OVC014 10.6 10 96% 76.45 1018.1
19 03:56 Vrbl 6 16.09 A Few Clouds FEW016 11.1 10.6 12.2 9.4 97% 76.43 1018.0
19 02:56 Calm 16.09 Fair CLR 9.4 9.4 100% 76.43 1017.8
19 01:56 Calm 16.09 Fair CLR 9.4 9.4 100% 76.4 1017.6
19 00:56 Calm 16.09 Fair CLR 10 9.4 96% 76.4 1017.4
18 23:56 Calm 16.09 Fair CLR 10 9.4 96% 76.38 1017.1
18 22:56 Calm 16.09 Fair CLR 11.1 10 93% 76.35 1016.8
18 21:56 Calm 16.09 Fair CLR 12.2 10.6 17.2 12.2 90% 76.33 1016.6
18 20:56 SE 7 16.09 Fair CLR 13.9 10.6 81% 76.33 1016.5
18 19:56 S 7 16.09 Fair CLR 15 10 72% 76.33 1016.3
18 18:56 S 7 16.09 Fair CLR 15.6 10.6 72% 76.33 1016.3
18 17:56 Vrbl 7 16.09 Fair CLR 16.7 10 65% 76.33 1016.3
18 16:56 Calm 16.09 Fair CLR 15 11.1 78% 76.33 1016.6
18 15:56 Calm 16.09 Fair CLR 16.7 10.6 16.7 11.1 67% 76.33 1016.5
18 14:56 Vrbl 6 16.09 Fair CLR 15 10.6 75% 76.35 1016.7
18 13:56 Vrbl 7 16.09 Fair CLR 14.4 10.6 78% 76.38 1017.1
18 12:56 Vrbl 6 16.09 Fair CLR 12.8 10 83% 76.4 1017.5
18 11:56 Calm 16.09 Fair CLR 12.2 10 87% 76.43 1017.8
18 10:56 Vrbl 6 16.09 Mostly Cloudy BKN016 11.7 10 89% 76.43 1017.9
18 09:56 Vrbl 6 16.09 Overcast OVC018 11.7 10 11.7 10.6 89% 76.43 1018.0
Date Time (akdt) Wind (kph) Vis. (km) Weather Sky Cond. Air Dwpt Max. Min. Relative Humidity Wind Chill (°C) Heat Index (°C) altimeter (cm) sea level (mb) 1 hr 3 hr 6 hr
6 hour
Temperature (ºC) Pressure Precipitation (cm)